Date String (YYYY-MM-DD hh:mm:ss) UTC,Instrument flags,Ambient pressure (hPa),Sample flow (lpm),Bypass flow (lpm),Sample temperature (°C),Ambient temperature (°C),ASC tube jacket temperature (°C),LED temperature (°C),Box temperature (°C),Sample RH (%),Span deviation,Mass concentration (μg/m³),Mass concentration (μg/m³),Mass concentration (μg/m³)
DateTimeUTC,F1_M11,P_M11,Q1_M11,Q2_M11,T1_M11,T2_M11,T3_M11,T4_M11,T5_M11,U1_M11,ZSPAN_M11,X0_M11,X2_M11,X1_M11
2022-12-15 03:00:00,,0817.3,4.95,0.00,21.4,19.9,00.0,30.3,23.1,06.2,0000.0,0004.32,0002.13,0001.70
2022-12-15 03:01:00,,0817.3,5.06,0.00,21.4,19.8,00.0,30.3,23.0,06.1,0000.0,0004.34,0002.11,0001.70
2022-12-15 03:02:00,,0817.3,4.95,0.00,21.4,19.8,00.0,30.3,23.0,06.1,0000.0,0004.40,0002.12,0001.70
2022-12-15 03:03:00,,0817.3,5.05,0.00,21.4,20.3,00.0,30.3,23.1,06.1,0000.0,0004.26,0002.08,0001.68
2022-12-15 03:04:00,,0817.3,4.96,0.00,21.5,21.4,00.0,30.2,23.4,06.2,0000.0,0004.25,0002.05,0001.67
2022-12-15 03:05:00,,0817.4,5.03,0.00,21.6,21.8,00.0,30.3,23.5,06.1,0000.0,0004.23,0002.04,0001.66
2022-12-15 03:06:00,,0817.4,4.98,0.00,21.6,21.4,00.0,30.3,23.5,06.1,0000.0,0004.18,0002.00,0001.65
2022-12-15 03:07:00,,0817.4,5.01,0.00,21.6,21.0,00.0,30.4,23.4,06.1,0000.0,0004.26,0002.03,0001.65
2022-12-15 03:08:00,,0817.3,5.01,0.00,21.6,20.7,00.0,30.4,23.3,06.0,0000.0,0004.01,0002.01,0001.64
2022-12-15 03:09:00,,0817.4,5.00,0.00,21.5,20.5,00.0,30.4,23.2,05.9,0000.0,0004.12,0002.04,0001.63
2022-12-15 03:10:00,,0817.3,4.99,0.00,21.5,20.3,00.0,30.4,23.1,05.9,0000.0,0004.05,0002.01,0001.61
2022-12-15 03:11:00,,0817.3,5.00,0.00,21.5,20.2,00.0,30.4,23.1,05.9,0000.0,0003.80,0002.02,0001.61
2022-12-15 03:12:00,,0817.3,5.04,0.00,21.5,20.0,00.0,30.3,23.0,06.0,0000.0,0003.35,0002.04,0001.61
2022-12-15 03:13:00,,0817.3,4.96,0.00,21.4,19.9,00.0,30.3,23.0,06.0,0000.0,0003.38,0002.06,0001.61
2022-12-15 03:14:00,,0817.2,5.00,0.00,21.4,19.8,00.0,30.3,22.9,06.0,0000.0,0003.44,0002.09,0001.62
2022-12-15 03:15:00,,0817.2,5.01,0.00,21.4,20.5,00.0,30.3,23.1,06.0,0000.0,0004.42,0002.21,0001.64
2022-12-15 03:16:00,,0817.4,5.01,0.00,21.5,21.7,00.0,30.2,23.4,06.0,0000.0,0006.50,0002.44,0001.65
2022-12-15 03:17:00,,0817.4,4.98,0.00,21.6,22.3,00.0,30.3,23.7,06.0,0000.0,0008.53,0002.54,0001.66
2022-12-15 03:18:00,,0817.4,5.02,0.00,21.7,21.9,00.0,30.4,23.6,05.9,0000.0,0008.55,0002.52,0001.66
2022-12-15 03:19:00,,0817.3,5.01,0.00,21.7,21.4,00.0,30.4,23.5,05.9,0000.0,0008.52,0002.51,0001.65
2022-12-15 03:20:00,,0817.3,4.97,0.00,21.6,21.0,00.0,30.4,23.4,05.9,0000.0,0008.79,0002.47,0001.65
2022-12-15 03:21:00,,0817.3,5.04,0.00,21.6,20.7,00.0,30.4,23.3,05.9,0000.0,0009.06,0002.48,0001.67
2022-12-15 03:22:00,,0817.4,4.95,0.00,21.6,20.4,00.0,30.4,23.2,05.9,0000.0,0009.25,0002.47,0001.67
2022-12-15 03:23:00,,0817.5,5.05,0.00,21.6,20.2,00.0,30.4,23.1,05.9,0000.0,0009.40,0002.45,0001.67
2022-12-15 03:24:00,,0817.5,4.95,0.00,21.5,20.1,00.0,30.4,23.1,06.0,0000.0,0009.30,0002.39,0001.67
2022-12-15 03:25:00,,0817.5,5.00,0.00,21.5,20.0,00.0,30.4,23.0,06.0,0000.0,0009.31,0002.43,0001.67
2022-12-15 03:26:00,,0817.5,5.03,0.00,21.4,19.9,00.0,30.4,23.0,06.0,0000.0,0008.95,0002.37,0001.66
2022-12-15 03:27:00,,0817.5,4.96,0.00,21.4,20.3,00.0,30.4,23.1,06.0,0000.0,0007.75,0002.14,0001.65
2022-12-15 03:28:00,,0817.5,5.06,0.00,21.5,21.4,00.0,30.3,23.4,06.0,0000.0,0005.09,0002.03,0001.65
2022-12-15 03:29:00,,0817.5,4.95,0.00,21.7,21.9,00.0,30.4,23.6,06.0,0000.0,0004.69,0002.02,0001.65
2022-12-15 03:30:00,,0817.4,5.01,0.00,21.7,21.4,00.0,30.4,23.5,06.0,0000.0,0004.68,0002.02,0001.66
2022-12-15 03:31:00,,0817.5,5.00,0.00,21.6,20.9,00.0,30.5,23.4,06.0,0000.0,0004.40,0002.04,0001.66
2022-12-15 03:32:00,,0817.5,5.00,0.00,21.6,20.7,00.0,30.5,23.3,06.0,0000.0,0003.71,0002.03,0001.65
2022-12-15 03:33:00,,0817.5,5.00,0.00,21.6,20.5,00.0,30.5,23.2,06.0,0000.0,0003.22,0002.03,0001.65
2022-12-15 03:34:00,,0817.5,4.99,0.00,21.6,20.3,00.0,30.5,23.2,06.0,0000.0,0002.95,0002.02,0001.66
2022-12-15 03:35:00,,0817.5,4.99,0.00,21.5,20.1,00.0,30.5,23.1,06.0,0000.0,0002.95,0002.03,0001.66
2022-12-15 03:36:00,,0817.6,5.04,0.00,21.5,20.0,00.0,30.4,23.1,06.0,0000.0,0003.01,0002.05,0001.67
2022-12-15 03:37:00,,0817.5,4.96,0.00,21.5,19.9,00.0,30.4,23.0,06.0,0000.0,0003.02,0002.03,0001.68
2022-12-15 03:38:00,,0817.6,5.00,0.00,21.5,20.7,00.0,30.4,23.2,06.0,0000.0,0003.21,0002.07,0001.70
2022-12-15 03:39:00,,0817.6,5.02,0.00,21.6,21.7,00.0,30.4,23.5,05.9,0000.0,0003.46,0002.11,0001.71
2022-12-15 03:40:00,,0817.5,4.98,0.00,21.7,21.8,00.0,30.4,23.6,05.9,0000.0,0003.64,0002.14,0001.71
2022-12-15 03:41:00,,0817.5,5.00,0.00,21.7,21.2,00.0,30.5,23.5,05.9,0000.0,0003.68,0002.13,0001.70
2022-12-15 03:42:00,,0817.5,5.01,0.00,21.6,20.7,00.0,30.5,23.3,06.0,0000.0,0003.77,0002.12,0001.70
2022-12-15 03:43:00,,0817.6,4.99,0.00,21.6,20.5,00.0,30.5,23.2,06.0,0000.0,0003.81,0002.13,0001.70
2022-12-15 03:44:00,,0817.5,5.02,0.00,21.6,20.2,00.0,30.5,23.2,06.0,0000.0,0003.93,0002.18,0001.72
2022-12-15 03:45:00,,0817.4,5.01,0.00,21.5,20.0,00.0,30.5,23.1,06.0,0000.0,0004.09,0002.20,0001.73
2022-12-15 03:46:00,,0817.4,4.97,0.00,21.5,19.9,00.0,30.4,23.0,06.0,0000.0,0004.49,0002.22,0001.73
2022-12-15 03:47:00,,0817.5,5.02,0.00,21.4,19.7,00.0,30.4,22.9,05.9,0000.0,0004.93,0002.24,0001.73
2022-12-15 03:48:00,,0817.5,4.98,0.00,21.4,20.4,00.0,30.4,23.1,05.9,0000.0,0005.19,0002.22,0001.71
2022-12-15 03:49:00,,0817.5,5.02,0.00,21.6,21.5,00.0,30.4,23.4,05.9,0000.0,0005.52,0002.23,0001.71
2022-12-15 03:50:00,,0817.4,5.00,0.00,21.7,21.7,00.0,30.4,23.6,05.9,0000.0,0005.97,0002.30,0001.72
2022-12-15 03:51:00,,0817.4,4.98,0.00,21.7,21.2,00.0,30.5,23.5,05.9,0000.0,0006.42,0002.38,0001.73
2022-12-15 03:52:00,,0817.5,5.00,0.00,21.6,20.7,00.0,30.5,23.3,05.9,0000.0,0006.42,0002.40,0001.72
2022-12-15 03:53:00,,0817.6,5.00,0.00,21.6,20.4,00.0,30.5,23.2,05.9,0000.0,0006.44,0002.46,0001.73
2022-12-15 03:54:00,,0817.5,5.00,0.00,21.6,20.2,00.0,30.5,23.1,05.9,0000.0,0006.41,0002.48,0001.73
2022-12-15 03:55:00,,0817.4,5.03,0.00,21.5,20.0,00.0,30.4,23.0,05.9,0000.0,0006.45,0002.48,0001.72
2022-12-15 03:56:00,,0817.5,4.97,0.00,21.5,19.8,00.0,30.4,22.9,05.9,0000.0,0007.42,0002.45,0001.72
2022-12-15 03:57:00,,0817.5,5.00,0.00,21.5,20.4,00.0,30.4,23.1,05.9,0000.0,0007.64,0002.43,0001.72
2022-12-15 03:58:00,,0817.6,5.02,0.00,21.6,21.5,00.0,30.3,23.5,05.8,0000.0,0007.22,0002.40,0001.72
2022-12-15 03:59:00,,0817.7,4.98,0.00,21.7,22.4,00.0,30.4,23.7,05.8,0000.0,0007.01,0002.38,0001.72
